www.pogodaiklimat.ru

Погода и климат >> Архив погоды >> Вьетнам >> Хайфон


ПОГОДА в Хайфоне

  • Прогноз погоды в Хайфоне
  • Монитор погоды в Хайфоне

АРХИВ ПОГОДЫ в Хайфоне

Время (UTC), дата Ветер
(напр.,м/с)
 
Видим.   Явления Облачность Т
(С)
Тd
(С)
f
(%)
Тe
(С)
Тes
(С)
Комфортность P
(гПа)
Po
(гПа)
Тmin
(С)
Tmax
(С)
R
(мм)
R24
(мм)
S
(см)
09 12.06 Ю 2 20 км 8/4 600 м
[Cb cap Cs]
+37.2 +25.2 50 +51 +54 опасность
перегрева
999.0 998.1
12 12.06 ЮВ 3 20 км 8/0
[Cs]
+35.4 +25.8 58 +51 +51 опасность
перегрева
999.1 998.2 +38.2
15 12.06 ЮВ 3 10 км 4/1 1000 м
[Sc Ci fib]
+32.8 +27.0 72 +51 +51 опасность
перегрева
1001.7 1000.8
18 12.06 ЮВ 2 10 км 8/3 1000 м
[Sc Cs]
+31.2 +27.5 81 +50 +50 опасность
перегрева
1000.1 999.2
21 12.06 В 1 10 км 3/3 300 м
[Cu hum]
+31.0 +27.5 82 +50 +50 опасность
перегрева
1000.6 999.7
00 13.06 штиль 0 10 км 10/10 300 м
[Cu Sc]
+31.2 +28.2 84 +52 +52 опасность
перегрева
1002.4 1001.5 +30.5
03 13.06 С 4 10 км 10/8 300 м
[Cu Sc As op]
+32.3 +27.5 76 +52 +52 опасность
перегрева
1004.4 1003.5
06 13.06 штиль 0 10 км 10/8 1000 м
[Sc As op]
+31.8 +25.1 68 +46 +47 опасность
перегрева
1002.2 1001.3
09 13.06 штиль 0 10 км 9/6 1000 м
[Sc Cs]
+33.4 +25.1 62 +47 +51 опасность
перегрева
1000.0 999.1
12 13.06 В 2 10 км 9/6 1000 м
[Sc Ac trans Cs]
+32.6 +26.4 70 +49 +49 опасность
перегрева
1001.4 1000.5 +34.0
15 13.06 штиль 0 10 км 9/6 300 м
[Sc Cs]
+31.8 +25.9 71 +47 +47 опасность
перегрева
1002.9 1002.0
18 13.06 штиль 0 10 км 8/8 1000 м
[Sc]
+30.4 +27.3 84 +49 +49 опасность
перегрева
1001.6 1000.7
21 13.06 С 3 10 км 10/10 300 м
[Cu Sc]
+29.8 +27.8 89 +49 +49 опасность
перегрева
1001.0 1000.1
00 14.06 СВ 2 10 км слаб. дождь 10/8
[Frnb As op]
+28.9 +26.1 85 +44 +44 опасность
перегрева
1003.1 1002.2 +28.9 0.0
03 14.06 С 2 10 км {дождь} 9/4 1000 м
[Sc As trans]
+30.6 +25.2 73 +44 +50 опасность
перегрева
1003.8 1002.9
06 14.06 В 2 10 км {дождь} 9/9 600 м
[Cu Sc]
+33.3 +26.8 69 +51 +53 опасность
перегрева
1001.8 1000.9 0.0
09 14.06 В 3 10 км 9/8 600 м
[Cb cap Ac trans]
+33.4 +26.9 69 +51 +52 опасность
перегрева
1000.1 999.2
12 14.06 ЮВ 3 10 км {гроза} 9/6 600 м
[Cb cap Ac trans]
+30.4 +27.5 85 +49 +49 опасность
перегрева
1001.1 1000.2 +34.5 0.0
15 14.06 В 3 10 км 9/9 600 м
[Cu Sc]
+28.6 +25.9 85 +43 +43 опасность
перегрева
1003.2 1002.3
18 14.06 ЮВ 2 10 км 9/9 300 м
[Cu Sc]
+29.1 +25.8 82 +43 +43 опасность
перегрева
1002.2 1001.3
21 14.06 штиль 0 10 км 8/1 600 м
[Cu hum Cs]
+29.0 +27.9 94 +48 +48 опасность
перегрева
1000.9 1000.0
00 15.06 ЮВ 2 10 км 9/9 300 м
[Cu Sc]
+30.1 +28.0 89 +50 +50 опасность
перегрева
1002.2 1001.3 +28.5
03 15.06 С 2 10 км 9/5 600 м
[Cu Sc Cs]
+33.5 +27.6 71 +53 +60 опасность
перегрева
1002.5 1001.6
06 15.06 З 1 10 км 9/9 600 м
[Cu Sc]
+35.8 +24.8 53 +49 +51 опасность
перегрева
1001.2 1000.3
09 15.06 СЗ 1 10 км 9/5 600 м
[Cu Sc Cs]
+36.2 +25.6 55 +51 +55 опасность
перегрева
999.0 998.1
12 15.06 ЮВ 4 10 км 9/3 600 м
[Cu med, cong Cs]
+34.6 +26.4 63 +52 +52 опасность
перегрева
999.3 998.4 +36.8
15 15.06 В 2 10 км 9/0
[Cs]
+32.0 +27.4 77 +51 +51 опасность
перегрева
1001.6 1000.7
18 15.06 В 1 10 км 6/6 1000 м
[Sc]
+30.8 +28.2 86 +51 +51 опасность
перегрева
1000.6 999.7
21 15.06 СВ 2 10 км 5/0
[Cs]
+30.0 +28.0 89 +50 +50 опасность
перегрева
999.4 998.5
00 16.06 ЮВ 2 10 км 9/9 1000 м
[Sc]
+30.3 +27.8 87 +50 +50 опасность
перегрева
1001.2 1000.3 +29.8
03 16.06 В 3 10 км 9/5 1000 м
[Sc Cs]
+33.1 +27.4 72 +52 +58 опасность
перегрева
1001.4 1000.5
06 16.06 Ю 2 10 км 9/4 1000 м
[Sc Cs]
+34.6 +26.6 63 +52 +62 опасность
перегрева
1000.6 999.7
09 16.06 В 2 10 км 9/9 1000 м
[Sc]
+35.5 +26.0 58 +51 +52 опасность
перегрева
998.9 998.0
12 16.06 В 3 10 км 9/8 600 м
[Cb cap Cs]
+34.0 +25.9 63 +50 +50 опасность
перегрева
1000.1 999.2 +36.1
15 16.06 В 4 10 км 9/3 1000 м
[Sc Cs]
+31.0 +28.1 85 +52 +52 опасность
перегрева
1002.2 1001.3
18 16.06 СВ 3 10 км 8/3 1000 м
[Sc Cs]
+30.0 +28.3 91 +51 +51 опасность
перегрева
1001.7 1000.8
21 16.06 СВ 2 10 км 9/6 600 м
[Cb cap Cs]
+30.1 +28.3 90 +51 +51 опасность
перегрева
1001.0 1000.1
00 17.06 В 3 10 км 10/10 300 м
[Cu Sc]
+30.2 +28.0 88 +50 +50 опасность
перегрева
1002.8 1001.9 +29.8
03 17.06 В 2 10 км 9/3 300 м
[Cu hum As trans]
+31.4 +27.1 78 +49 +55 опасность
перегрева
1003.2 1002.3
06 17.06 В 2 10 км 9/3 300 м
[Cu hum As trans]
+33.4 +26.9 69 +51 +58 опасность
перегрева
1002.3 1001.4
09 17.06 В 3 10 км 9/4 300 м
[Cu Sc As trans]
+33.6 +26.2 65 +50 +51 опасность
перегрева
1000.7 999.8
12 17.06 В 3 10 км 10/10 600 м
[Cb cap]
+31.3 +25.8 73 +47 +47 опасность
перегрева
1002.6 1001.7 +34.2
15 17.06 штиль 0 10 км в посл. час ливневой дождь {гроза} 10/10 300 м
[Cb cap]
+25.8 +24.2 91 +36 +36 очень
душно
1005.6 1004.7
18 17.06 С 2 10 км {гроза, ливн. осадки} 9/9 300 м
[Cu Sc]
+26.1 +23.9 88 +36 +36 очень
душно
1004.3 1003.4 15
21 17.06 штиль 0 10 км слаб. дождь 10/10 300 м
[Cu Sc]
+26.7 +25.1 91 +38 +38 очень
душно
1003.7 1002.8
00 18.06 штиль 0 10 км слаб. дождь 10/10
[Cu Sc]
+26.5 +24.6 89 +37 +37 очень
душно
1005.4 1004.5 +25.5 18
03 18.06 В 2 10 км {дождь} 10/8 300 м
[Cu Sc As op]
+27.6 +25.0 86 +40 +41 очень
душно
1006.4 1005.5
06 18.06 В 2 10 км {дождь} 10/4 300 м
[Cu hum As op]
+28.4 +25.8 86 +42 +45 опасность
перегрева
1005.1 1004.2 0.7
09 18.06 ЮВ 2 10 км 10/10 300 м
[Cu Sc]
+29.2 +25.9 82 +44 +44 опасность
перегрева
1003.2 1002.3
12 18.06 ЮВ 2 10 км 8/8
[Cb cap]
+29.5 +26.5 84 +45 +45 опасность
перегрева
1003.7 1002.8 +30.4 0.7
15 18.06 В 2 10 км 3/3 1000 м
[Sc]
+28.6 +26.6 89 +44 +44 опасность
перегрева
1005.6 1004.7
18 18.06 В 2 10 км 10/10 300 м
[Cu Sc]
+28.2 +26.6 91 +44 +44 опасность
перегрева
1005.4 1004.5
21 18.06 штиль 0 10 км 8/4 300 м
[Cu hum Cs]
+28.0 +26.6 92 +43 +43 опасность
перегрева
1004.8 1003.9
00 19.06 В 2 10 км 9/5 600 м
[Cu Sc Cs]
+28.5 +26.4 88 +43 +45 опасность
перегрева
1005.6 1004.7 +27.6
03 19.06 В 3 10 км 9/4 600 м
[Cu med, cong Cs]
+31.6 +27.2 78 +50 +57 опасность
перегрева
1005.7 1004.8
06 19.06 В 4 10 км 9/3 600 м
[Cu med, cong Cs]
+33.6 +26.1 65 +50 +58 опасность
перегрева
1003.9 1003.0

 

Местоположение метеостанции Хайфон (Вьетнам): широта 20.97 долгота 105.77 высота над уровнем моря 8 м.

В архиве по умолчанию представлена погода в Хайфоне за последнюю неделю. Архивные данные за месяц целиком и за предыдущие месяцы, начиная с января 2011 года, Вы можете получить, выбрав интересующий диапазон дат из раскрывающегося списка и нажав кнопку "Ввод!".


*Определитесь, кто Вы:
робот инопланетянин человек

Внимание! Время в таблицах - всемирное. Для получения местного времени необходимо прибавить поправку, которая равна 7 ч.

Смотрите также архив погоды в соседних городах и на ближайших метеорологических станциях:

Погода в Ханое (Вьетнам) (7 км)
Погода в Намдине (Вьетнам) (72 км)
Погода в Пхульене (Вьетнам) (91 км)
Погода в Баккане (Вьетнам) (131 км)
Погода в Тханьхоа (Вьетнам) (136 км)
Погода в Лангсоне (Вьетнам) (140 км)
Погода во Вьенгсае (Лаос) (172 км)
Погода в Лончжоу (Гуанси-Чжуанский автономный район, Китай) (186 км)
Погода в Самныа (Лаос) (187 км)
Погода в Каобанге (Вьетнам) (195 км)

Пояснения к столбцам:

Ветер - указаны скорость ветра в м/с - средняя за 10 мин, порывы в срок и между сроками (в фигурных скобках) и направление, откуда дует ветер: С - северный, СВ - северо-восточный, В - восточный, ЮВ - юго-восточный, Ю - южный, ЮЗ - юго-западный, З - западный, СЗ - северо-западный.
Видимость - горизонтальная дальность видимости в метрах или километрах. При видимости от 1 до 10 км при отсутствии осадков обычно наблюдается дымка, при ухудшении видимости до 1 км и менее - туман. В сухую погоду видимость может ухудшаться дымом, пылью или мглою.
Явления - указаны атмосферные явления, наблюдавшиеся в срок или в последний час перед сроком; фигурными скобками обозначены явления, наблюдавшиеся между сроками (за 1-3 часа до срока); квадратными скобками обозначены град или гололедные отложения с указанием их диаметра в мм.
Облачность - указаны через наклонную черту общая и нижняя облачность в баллах и высота нижней границы облаков в метрах; квадратными скобками обозначены формы облаков: Ci - перистые, Cs - перисто-слоистые, Cc - перисто-кучевые, Ac - высококучевые, As - высокослоистые, Sc - слоисто-кучевые, Ns - слоисто-дождевые, Cu - кучевые, Cb - кучево-дождевые. Подробнее классификацию облаков см. в Атласе облаков (PDF).
T - Температура воздуха - температура, измеренная на высоте 2 м над землей.
Td - Температура точки росы - температура, при понижении до которой содержащийся в воздухе водяной пар достигнет насыщения.
f - Относительная влажность воздуха - влажноcть воздуха, измеренная на высоте 2 м над землей.
Te - Эффективная температура - температура, которую ощущает одетый по сезону человек в тени. Характеристика душности погоды. При расчете учитывается влияние влажности воздуха и скорости ветра на теплоощущения человека.
Tes - Эффективная температура на солнце - температура, которую ощущает человек, с поправкой на солнечный нагрев. Характеристика знойности погоды. Зависит от высоты солнца над горизонтом, облачности и скорости ветра. Ночью, в пасмурную погоду, а также при ветре 12 м/с и более поправка равна нулю.
P - Атмосферное давление - приведенное к уровню моря атмосферное давление.
Po - Атмосферное давление - измеренное на уровне метеостанции атмосферное давление.
Tmin - Минимальная температура - минимум температуры воздуха на высоте 2 м над землей.
Tmax - Максимальная температура - максимум температуры воздуха на высоте 2 м над землей.
R - Количество осадков - Количество выпавших осадков за период времени, мм. При наведении курсора мыши на число - период времени, за который выпало указанное количество осадков.
R24 - Количество осадков - Количество выпавших осадков за 24 часа, мм.
S - Снежный покров - Высота снежного покрова, см. При наведении курсора мыши на число - состояние снежного покрова и степень покрытия местности в баллах.